[[{"header":{"parameterUnit":"m.s-1","parameterCategory":1,"la1":30.2991,"la2":30.254,"lo1":-89.0895,"lo2":-89.0444,"dy":0.0017,"dx":0.0017,"nx":28,"ny":28,"refTime":"2025-04-25T21:00:00:Z","depth":0,"parameterNumber":2,"parameterNumberName":"U-component_of_WINDS"},"data":[0,0,0,0,0,0,0,0,0,0,0,0,0,0,0,0,0,0,0,0,0,0,0,0,0,0,0,0,0,0,0,0,0,0,0,0,0,0,0,0,0,0,0,0,0,0,0,0,0,0,0,0,0,0,0,0,0,0,0.3337,0.3338,0,0.3431,0.3432,0.3433,0.3428,0.3427,0.3425,0.3424,0.3525,0.3529,0.3532,0,0,0,0,0,0,0,0,0,0,0,0,0,0.3156,0.316,0.3337,0.3338,0.334,0.3431,0.3432,0.3434,0.3428,0.3427,0.3425,0.3424,0.3523,0.3528,0.3533,0,0,0,0,0,0,0,0,0,0,0,0,0,0.3241,0.3161,0.3337,0.3348,0.335,0.3431,0.3433,0.3434,0.3429,0.3427,0.3425,0.3423,0.3522,0.3528,0.3533,0.3611,0,0,0.3552,0.3554,0,0,0,0,0,0,0,0,0.3236,0.3248,0.3345,0.3347,0.335,0.3416,0.3406,0.3494,0.3429,0.3399,0.3424,0.3422,0.349,0.3499,0.3521,0.3616,0.362,0.3552,0.3556,0.3558,0.356,0,0,0,0,0,0,0,0.323,0.3244,0.3375,0.3347,0.3349,0.3349,0.3359,0.3422,0.3455,0.3401,0.3401,0.3412,0.3491,0.3515,0.3523,0.3622,0.3552,0.3557,0.3561,0.3563,0.3785,0.3787,0,0,0,0,0,0,0.3222,0.3239,0.3372,0.3377,0.3287,0.3354,0.3365,0.3397,0.3454,0.3461,0.3414,0.3412,0.3506,0.3517,0.3527,0.3622,0.3558,0.3564,0.3567,0.3782,0.3785,0.3788,0,0,0,0,0,0,0.3218,0.3234,0.3368,0.3308,0.3325,0.3359,0.3395,0.34,0.3424,0.3464,0.347,0.3432,0.3505,0.3519,0.359,0.3625,0.3566,0.3572,0.378,0.3783,0.3786,0.3812,0,0,0,0,0,0,0.3213,0.3232,0.3262,0.3309,0.3328,0.3428,0.3397,0.3403,0.3433,0.3431,0.3483,0.3489,0.3504,0.3581,0.3596,0.3632,0.3577,0.3777,0.3781,0.3785,0.3808,0.3816,0.3822,0,0,0,0,0,0.3206,0.3266,0.3263,0.3279,0.3365,0.343,0.3442,0.3457,0.3436,0.3466,0.3492,0.3488,0.3618,0.3588,0.3605,0.3644,0.3775,0.378,0.3785,0.3805,0.3814,0.3822,0,0,0,0,0,0,0.3224,0.3272,0.327,0.3346,0.3384,0.3429,0.3468,0.3466,0.3512,0.3508,0.3526,0.3538,0.3609,0.3634,0.3599,0.3722,0.3694,0.3703,0.3703,0.3713,0.372,0.3713,0.3581,0,0,0,0,0,0.3236,0.3284,0.3324,0.3388,0.3407,0.3434,0.3463,0.3471,0.3511,0.3528,0.3559,0.3599,0.3649,0.3682,0.3731,0.3811,0.3822,0.3846,0.3853,0.3858,0.3866,0.391,0.3921,0.3805,0.3805,0.3805,0,0,0.3263,0.3296,0.3325,0.3392,0.3422,0.3472,0.3448,0.3502,0.3539,0.3537,0.3605,0.3629,0.3676,0.3751,0.3787,0.3774,0.39,0.3865,0.3869,0.3874,0.3916,0.3927,0.3937,0.3808,0.3808,0.3807,0,0,0.3338,0.3367,0.3423,0.3453,0.3498,0.3516,0.3529,0.3574,0.359,0.3658,0.3658,0.3703,0.3789,0.3822,0.385,0.3935,0.3932,0.395,0.3988,0.403,0.404,0.4048,0.4078,0.4089,0.3957,0.3957,0.3957,0,0.3366,0.3439,0.3452,0.3506,0.3536,0.3534,0.3591,0.362,0.368,0.3701,0.3685,0.3792,0.3823,0.3907,0.3927,0.395,0.3966,0.3945,0.4037,0.4045,0.4053,0.4083,0.4094,0.3959,0.3959,0.3959,0.3959,0,0.3472,0.3523,0.3563,0.3618,0.3653,0.3708,0.373,0.3763,0.3768,0.3787,0.3857,0.3894,0.3949,0.397,0.3976,0.4054,0.4044,0.4033,0.4006,0.4066,0.4094,0.4105,0.3962,0.3961,0.3961,0.396,0,0,0.3562,0.3622,0.3636,0.3661,0.371,0.3751,0.3806,0.3858,0.3887,0.3928,0.3975,0.4047,0.4036,0.4067,0.4077,0.4114,0.4179,0.4098,0.4099,0.4112,0.4267,0.4276,0.4289,0.4177,0.4179,0.4181,0.4264,0,0.3641,0.3738,0.375,0.3836,0.3883,0.3882,0.393,0.3966,0.3985,0.4028,0.405,0.4101,0.4082,0.4101,0.4138,0.4163,0.4211,0.4157,0.4222,0.4224,0.4211,0.4304,0.4313,0.4389,0.4275,0.4276,0.4278,0,0.3747,0.3789,0.3879,0.3921,0.3942,0.3984,0.4033,0.4075,0.4115,0.4127,0.4161,0.4165,0.4223,0.4192,0.4272,0.4236,0.4263,0.4279,0.4283,0.429,0.4255,0.4314,0.4414,0.4426,0.4295,0.4294,0.4292,0,0.3804,0.3883,0.3947,0.3968,0.4018,0.4049,0.4071,0.4109,0.414,0.4183,0.4203,0.4253,0.428,0.4319,0.4336,0.4312,0.4415,0.4386,0.4427,0.4427,0.445,0.4448,0.4556,0.4466,0.4466,0.4466,0.4466,0,0.3892,0.3947,0.3973,0.4012,0.4074,0.4088,0.4149,0.4171,0.4205,0.4249,0.4251,0.4292,0.4313,0.4358,0.4372,0.4436,0.4449,0.446,0.4463,0.446,0.4459,0.4479,0.4474,0.4469,0.4468,0.4468,0.4467,0,0.3966,0.3985,0.4055,0.4096,0.4107,0.4151,0.4187,0.4226,0.4244,0.43,0.4313,0.4342,0.4395,0.4416,0.4482,0.4491,0.4565,0.4564,0.4551,0.4552,0.4591,0.4587,0.4717,0.4734,0.4632,0.4633,0.4634,0,0.4021,0.4063,0.4109,0.4137,0.416,0.4207,0.4238,0.4253,0.4285,0.4333,0.4366,0.4418,0.4461,0.4546,0.4573,0.4623,0.4623,0.4665,0.4631,0.4626,0.4624,0.4622,0.4626,0.4672,0.4673,0.4674,0.4674,0,0.4117,0.4124,0.4167,0.4214,0.425,0.4288,0.4325,0.4349,0.4369,0.4405,0.4458,0.4491,0.4557,0.4609,0.4659,0.4684,0.4683,0.4685,0.4697,0.4694,0.4685,0.4691,0.4568,0.4682,0.4681,0.4681,0.468,0.468,0.4184,0.4221,0.4258,0.4306,0.4335,0.4369,0.4407,0.4429,0.4473,0.4527,0.4533,0.459,0.4629,0.4697,0.4723,0.4768,0.4757,0.4775,0.4779,0.4784,0.4786,0.4677,0.4777,0.4777,0.4777,0.4777,0.4777,0,0.428,0.4303,0.4347,0.4398,0.4436,0.443,0.447,0.4502,0.4552,0.4587,0.4629,0.469,0.474,0.477,0.4821,0.4851,0.4852,0.4864,0.4862,0.4868,0.4793,0.4778,0.4862,0.4862,0.4862,0.4862,0.4862,0.4862,0.4335,0.4397,0.4408,0.4485,0.4508,0.4563,0.4586,0.4618,0.4646,0.4713,0.4754,0.4773,0.4807,0.486,0.4905,0.4913,0.4932,0.4945,0.4952,0.4882,0.4873,0.4865,0.485,0.4949,0.4949,0.5023,0.5023,0.5024]},{"header":{"parameterUnit":"m.s-1","parameterCategory":1,"la1":30.2991,"la2":30.254,"lo1":-89.0895,"lo2":-89.0444,"dy":0.0017,"dx":0.0017,"nx":28,"ny":28,"refTime":"2025-04-25T21:00:00:Z","depth":0,"parameterNumber":3,"parameterNumberName":"V-component_of_WINDS"},"data":[0,0,0,0,0,0,0,0,0,0,0,0,0,0,0,0,0,0,0,0,0,0,0,0,0,0,0,0,0,0,0,0,0,0,0,0,0,0,0,0,0,0,0,0,0,0,0,0,0,0,0,0,0,0,0,0,0,0,2.5194,2.5194,0,2.5245,2.5245,2.5246,2.5305,2.5306,2.5307,2.5308,2.5355,2.5356,2.5356,0,0,0,0,0,0,0,0,0,0,0,0,0,2.5144,2.5145,2.5194,2.5194,2.5195,2.5244,2.5245,2.5246,2.5305,2.5306,2.5307,2.5308,2.5355,2.5356,2.5356,0,0,0,0,0,0,0,0,0,0,0,0,0,2.5177,2.5145,2.5194,2.5231,2.5235,2.5244,2.5245,2.5246,2.5305,2.5306,2.5308,2.5309,2.5355,2.5356,2.5356,2.5333,0,0,2.5358,2.5358,0,0,0,0,0,0,0,0,2.5175,2.5179,2.5225,2.5228,2.5232,2.527,2.5245,2.5275,2.5304,2.5278,2.5308,2.531,2.5326,2.5329,2.5335,2.5335,2.5337,2.5358,2.5359,2.5359,2.5359,0,0,0,0,0,0,0,2.5173,2.5177,2.5214,2.5225,2.523,2.5243,2.525,2.5251,2.5293,2.528,2.5285,2.529,2.5328,2.5334,2.5337,2.5337,2.5358,2.5359,2.5359,2.5359,2.5319,2.5318,0,0,0,0,0,0,2.5166,2.5175,2.5212,2.5215,2.5207,2.5243,2.525,2.5256,2.5293,2.5301,2.5289,2.5293,2.5333,2.5336,2.5339,2.5312,2.5359,2.5359,2.536,2.532,2.5319,2.5317,0,0,0,0,0,0,2.5164,2.5168,2.521,2.5196,2.5203,2.5243,2.5249,2.5257,2.5263,2.53,2.5307,2.5288,2.5334,2.5338,2.5334,2.5315,2.536,2.536,2.5322,2.532,2.5318,2.526,0,0,0,0,0,0,2.5163,2.5168,2.516,2.5196,2.5203,2.5205,2.5248,2.5257,2.5265,2.527,2.5301,2.5307,2.5335,2.5332,2.5334,2.5316,2.5361,2.5324,2.5321,2.5319,2.5264,2.5256,2.5249,0,0,0,0,0,2.5161,2.5141,2.5159,2.5163,2.5195,2.5204,2.5208,2.5242,2.5263,2.5255,2.5278,2.5306,2.5317,2.5332,2.5334,2.5316,2.5325,2.5322,2.5319,2.5267,2.5257,2.525,0,0,0,0,0,0,2.51,2.5146,2.5167,2.5159,2.5177,2.5214,2.5205,2.5231,2.5243,2.5248,2.5288,2.5294,2.5285,2.53,2.5316,2.5295,2.5325,2.5322,2.5285,2.5276,2.5269,2.5265,2.5361,0,0,0,0,0,2.5086,2.5091,2.5131,2.5119,2.5128,2.5165,2.517,2.5195,2.5215,2.5223,2.5246,2.5263,2.5271,2.5274,2.5283,2.5267,2.5273,2.5255,2.5248,2.5242,2.5239,2.523,2.5222,2.5307,2.5307,2.5307,0,0,2.5056,2.5082,2.5083,2.5108,2.5125,2.5128,2.5171,2.5173,2.5175,2.5223,2.522,2.5238,2.526,2.5249,2.5246,2.5262,2.5217,2.5238,2.5233,2.5233,2.5226,2.5218,2.5211,2.5304,2.5305,2.5305,0,0,2.5004,2.5025,2.5017,2.5034,2.506,2.5085,2.5083,2.5116,2.513,2.5129,2.5165,2.5167,2.5179,2.5193,2.5202,2.5155,2.518,2.5156,2.5119,2.511,2.5103,2.5097,2.5079,2.5072,2.5153,2.5153,2.5153,0,2.4963,2.4971,2.5009,2.5009,2.5018,2.5063,2.5055,2.5069,2.5096,2.51,2.5119,2.5134,2.5152,2.5145,2.5134,2.514,2.5137,2.5152,2.5101,2.5096,2.5091,2.5074,2.5067,2.515,2.515,2.515,2.5151,0,2.4919,2.4924,2.4914,2.4941,2.4949,2.4944,2.4981,2.4984,2.5008,2.503,2.5028,2.5051,2.5065,2.5065,2.5088,2.5061,2.507,2.5094,2.5125,2.5079,2.5064,2.5058,2.5145,2.5146,2.5147,2.5148,0,0,2.4829,2.4877,2.4873,2.4885,2.4918,2.4921,2.4918,2.4933,2.4935,2.4952,2.4949,2.4959,2.4981,2.4991,2.5015,2.5008,2.4967,2.5033,2.5034,2.5019,2.4937,2.4918,2.491,2.4985,2.4984,2.4983,2.4935,0,2.4782,2.4781,2.4815,2.4804,2.4808,2.485,2.4848,2.4866,2.4887,2.4892,2.4915,2.492,2.495,2.4956,2.4951,2.4973,2.4951,2.4978,2.4981,2.4981,2.4973,2.4903,2.4882,2.4836,2.493,2.4929,2.4928,0,2.4726,2.4741,2.473,2.4763,2.4766,2.4763,2.4779,2.4784,2.4806,2.4821,2.4832,2.4861,2.4859,2.4889,2.4886,2.4903,2.4907,2.4918,2.4917,2.4918,2.4951,2.49,2.4822,2.4814,2.4919,2.492,2.4921,0,2.466,2.4677,2.4673,2.4683,2.4721,2.4717,2.4733,2.4756,2.4763,2.4776,2.4781,2.4793,2.48,2.4808,2.4839,2.4859,2.4832,2.4865,2.4843,2.4842,2.4834,2.4834,2.4754,2.4839,2.4839,2.4839,2.4839,0,2.4602,2.4594,2.4644,2.4641,2.4633,2.4672,2.4662,2.4681,2.4701,2.4702,2.474,2.4739,2.478,2.4784,2.4808,2.4801,2.4804,2.4815,2.4821,2.4811,2.4809,2.4813,2.4816,2.4837,2.4838,2.4838,2.4838,0,2.4526,2.456,2.4558,2.4595,2.4604,2.4595,2.4626,2.4624,2.4648,2.4648,2.465,2.4686,2.4692,2.4724,2.4738,2.4754,2.4738,2.4751,2.4731,2.4734,2.471,2.4711,2.4629,2.462,2.4711,2.471,2.4709,0,2.4487,2.4481,2.4518,2.4522,2.4536,2.4541,2.4548,2.4587,2.4592,2.4616,2.4611,2.4621,2.463,2.4638,2.4665,2.4675,2.4688,2.4658,2.4689,2.4679,2.4686,2.4685,2.4684,2.4651,2.465,2.4649,2.4648,0,2.4413,2.443,2.4439,2.4455,2.4463,2.4476,2.4492,2.4492,2.4534,2.4539,2.4546,2.4554,2.4568,2.4577,2.4591,2.4606,2.4633,2.4638,2.4634,2.4622,2.461,2.4615,2.4711,2.464,2.4641,2.4641,2.4642,2.4642,2.4353,2.435,2.4375,2.4384,2.44,2.4414,2.4414,2.4438,2.4445,2.4461,2.4483,2.4487,2.4508,2.4531,2.4543,2.4546,2.4562,2.4555,2.4553,2.4551,2.4545,2.4611,2.4549,2.4549,2.455,2.455,2.455,0,2.428,2.4298,2.4307,2.4328,2.4335,2.4362,2.4381,2.4384,2.4388,2.4406,2.4415,2.4423,2.4432,2.4459,2.447,2.4467,2.448,2.4468,2.4468,2.4471,2.4531,2.4533,2.4458,2.4458,2.4458,2.4458,2.4458,2.4458,2.4242,2.4238,2.4258,2.4262,2.428,2.4286,2.4294,2.4307,2.4321,2.4329,2.4337,2.4355,2.4376,2.4389,2.4398,2.4406,2.4407,2.4391,2.4403,2.4458,2.4467,2.4475,2.4478,2.4392,2.4392,2.4343,2.4342,2.4342]}]]